Culdrose, United Kingdom

8:08 AM BST on April 27, 2018 (GMT +0100)
Culdrose Navy

Weather History for EGDR - June, 2013

Change the Weather History Date:

Sunday, June 9, 2013

  Actual Average Record
Temperature  
Mean Temperature 51 °F -  
Max Temperature 57 °F 61 °F 71 °F (2008)
Min Temperature 45 °F 51 °F 33 °F (2011)
Degree Days  
Heating Degree Days 14    
Growing Degree Days 1 (Base 50)    
Moisture  
Dew Point 46 °F    
Average Humidity 79    
Maximum Humidity 93    
Minimum Humidity 61    
Precipitation  
Precipitation 0.00 in - - ()
Sea Level Pressure  
Sea Level Pressure 30.00 in    
Wind  
Wind Speed 6 mph ()    
Max Wind Speed 12 mph    
Max Gust Speed -    
Visibility 7.4 miles    
Events      
Averages and records for this station are not official NWS values.
T = Trace of Precipitation, MM = Missing Value Source: Averaged Metar Reports

Daily Weather History Graph

Daily Weather History Graph

Search for Another Location

Airport or City:

Astronomy

Jun. 09, 2013 Rise Set
Actual Time 5:12 AM BST 9:28 PM BST
Civil Twilight 4:28 AM BST 10:13 PM BST
Nautical Twilight 3:24 AM BST 11:17 PM BST
Astronomical Twilight 1:52 AM BST 12:47 AM BST
Moon 6:03 AM BST (6/9) 9:57 PM BST (6/9)
Length of Visible Light 17h 45m
Length of Day
16h 16m
New Moon, 1% of the Moon is Illuminated
Jun 9
New Moon
Jun 16
First Quarter
Jun 23
Full
Jun 30
Last Quarter
Jul 8
New

Hourly Weather History & Observations

Time (BST) Temp. Windchill Dew Point Humidity Pressure Visibility Wind Dir Wind Speed Gust Speed Precip Events Conditions
12:50 AM 52 °F - 47 °F 77% 30.05 in 16 mi ENE 5.8 mph - -   Scattered Clouds
12:50 AM 51.8 °F - 46.4 °F 82% 30.04 in - ENE 5.8 mph - N/A   Clear
1:50 AM 50.0 °F - 46.4 °F 87% 30.04 in - ENE 4.6 mph - N/A   Clear
2:50 AM 48.2 °F - 46.4 °F 93% 30.01 in - NE 4.6 mph - N/A   Clear
3:50 AM 47 °F - 44 °F 87% 30.02 in 12 mi ENE 6.9 mph - -   Scattered Clouds
3:50 AM 48.2 °F - 44.6 °F 87% 30.01 in - ENE 6.9 mph - N/A   Clear
4:50 AM 46.4 °F 42.9 °F 42.8 °F 87% 30.01 in 6.2 mi ENE 6.9 mph - N/A   Partly Cloudy
5:50 AM 46.4 °F 42.9 °F 44.6 °F 93% 30.01 in 6.2 mi East 6.9 mph - N/A   Partly Cloudy
6:50 AM 50 °F - 47 °F 86% 30.01 in 7 mi ENE 6.9 mph - -   Haze
6:50 AM 50.0 °F - 46.4 °F 87% 30.01 in 6.2 mi ENE 6.9 mph - N/A   Partly Cloudy
7:50 AM 51.8 °F - 48.2 °F 88% 30.01 in 6.2 mi East 8.1 mph - N/A   Mostly Cloudy
8:50 AM 51.8 °F - 46.4 °F 82% 30.01 in 6.2 mi East 11.5 mph - N/A   Mostly Cloudy
9:50 AM 53 °F - 47 °F 73% 30.02 in 9 mi East 8.1 mph - -   Mostly Cloudy
9:50 AM 53.6 °F - 46.4 °F 77% 30.01 in 6.2 mi East 8.1 mph - N/A   Mostly Cloudy
10:50 AM 53.6 °F - 46.4 °F 77% 30.01 in 6.2 mi East 10.4 mph - N/A   Mostly Cloudy
11:50 AM 53.6 °F - 46.4 °F 77% 30.01 in 6.2 mi East 9.2 mph - N/A   Mostly Cloudy
12:50 PM 55.4 °F - 46.4 °F 72% 30.01 in 6.2 mi ESE 6.9 mph - N/A   Mostly Cloudy
1:50 PM 57.2 °F - 48.2 °F 72% 29.98 in 6.2 mi East 6.9 mph - N/A   Mostly Cloudy
2:50 PM 55.4 °F - 46.4 °F 72% 29.98 in 6.2 mi East 9.2 mph - N/A   Mostly Cloudy
3:50 PM 56 °F - 47 °F 62% 29.99 in 9 mi East 8.1 mph - -   Mostly Cloudy
3:50 PM 55.4 °F - 46.4 °F 72% 29.98 in 6.2 mi East 8.1 mph - N/A   Scattered Clouds
4:50 PM 57.2 °F - 46.4 °F 67% 29.98 in 6.2 mi ESE 6.9 mph - N/A   Partly Cloudy
5:50 PM 57.2 °F - 48.2 °F 72% 29.95 in 6.2 mi East 6.9 mph - N/A   Partly Cloudy
6:50 PM 56 °F - 46 °F 61% 29.97 in 11 mi ESE 6.9 mph - -   Scattered Clouds
6:50 PM 55.4 °F - 46.4 °F 72% 29.95 in 6.2 mi ESE 6.9 mph - N/A   Partly Cloudy
7:50 PM 55.4 °F - 46.4 °F 72% 29.95 in 6.2 mi East 6.9 mph - N/A   Partly Cloudy
8:50 PM 53.6 °F - 46.4 °F 77% 29.98 in 6.2 mi East 6.9 mph - N/A   Partly Cloudy
9:50 PM 50 °F - 46 °F 80% 30.00 in 9 mi East 6.9 mph - -   Haze
9:50 PM 50.0 °F - 46.4 °F 87% 29.98 in 6.2 mi East 6.9 mph - N/A   Partly Cloudy
10:50 PM 48.2 °F - 44.6 °F 87% 29.98 in - East 4.6 mph - N/A   Clear
11:50 PM 46.4 °F 43.5 °F 44.6 °F 93% 29.98 in - ESE 5.8 mph - N/A   Clear